User: anonymous   Login
Location: Fort Wayne
(41.1310°N, 85.1290°W)
Time: 03:35:23
(UTC-04:00)
Language:

Meteor 2-9 Rocket - Orbit

View from above orbital plane
View from above orbital plane
View from above satellite
View from above satellite

Ground track
Ground track

The orbit data is extracted from the following two-line orbital elements,

1 13719U 82116B   16183.90359584  .00000004  00000-0 -38221-5 0  9997
2 13719  81.2545 343.5046 0070704 271.9980 195.9312 14.14584714730848
Epoch (UTC): 01 July 2016 21:41:10
Eccentricity: 0.0070704
inclination: 81.2545°
perigee height: 792 km
apogee height: 895 km
right ascension of ascending node: 343.5046°
argument of perigee: 271.9980°
revolutions per day: 14.14584714
mean anomaly at epoch: 195.9312°
orbit number at epoch: 73084

The dashed part of the orbit path shows where the satellite is in the earth's shadow,  

DLR